Systeme der Energieversorgung

Prof. Dr.-Ing. Sauer, Erich

Dateibereich 21123

162,09 MB in 121 Dateien, zuletzt geändert am 12.12.2008

Dateiliste / Details

DateiDateien geändert amGröße
000Systeme_der_Energieversorgung.pdf12.12.2008 11:45:351,52 MB
001DIN2481_Darstellung_der_Stoffe_Dampf_Brennbare.pdf06.11.2008 14:04:06289,4 KB
002DIN2481_Leitungen_Absperrarmaturen_Rohrleitung.pdf06.11.2008 14:04:07276,1 KB
003DIN2481_Waermeaustauscher_Oberflaechenwaerme.pdf06.11.2008 14:04:07307,1 KB
004DIN2481_Waermeaustauscher_Wasserdampferzeug.pdf06.11.2008 14:04:07262,4 KB
005DIN2481_Wasserdampferzeuger_Kernreaktoren.pdf06.11.2008 14:04:07241,3 KB
006DIN2481_Maschinen_Dampfturbine_Fluessigkeitstur.pdf06.11.2008 14:04:07251,4 KB
007DIN2481_Maschinen_Dieselmotor_Fluessigkeitspum.pdf06.11.2008 14:04:08276,5 KB
008DIN2481_Maschinen_Wasserrueckkuehlanlagen_Ver.pdf06.11.2008 14:04:08279,1 KB
009Schaltplan_einer_Gasturbinenanlage.pdf06.11.2008 14:04:08524,3 KB
010Zustandsaenderungen_der_Luft_beim_Gasturbinenp.pdf06.11.2008 14:04:091,17 MB
011Gasturbosatz_des_Modells_V_94_3.pdf06.11.2008 14:04:092,26 MB
012Funktionsskizze_einer_Gasturbine_von_Siemens.pdf06.11.2008 14:04:111,34 MB
013V64_3A_67_MW_Gas_Turbine.pdf06.11.2008 14:04:11564,2 KB
014Energiebegriffe_und_Energiefluss.pdf06.11.2008 14:04:11671,4 KB
015Heizwerte_der_Energietraeger_und_Faktoren_fuer.pdf06.11.2008 14:04:12985,8 KB
016Energieflussbild_der_Bundesrepublik_D_1995_PJ.pdf06.11.2008 14:04:12698,9 KB
017Anmerkungen_zum_Energieflussbild_der_BRD_1995.pdf06.11.2008 14:04:12918,1 KB
018Energieflussbild_der_BRD_1995_linke_Seite.pdf06.11.2008 14:04:13941,4 KB
019Energieflussbild_der_BRD_1995_rechte_Seite.pdf06.11.2008 14:04:131014,6 KB
020Endenergieverbrauch_in_Deutschland_1996.pdf06.11.2008 14:04:14818,6 KB
021Energieflussbild_Deutschland_2006.pdf06.11.2008 14:04:141,90 MB
022Aufteilung_des_Endenergieverbrauchs_auf_2006.pdf06.11.2008 14:04:151,86 MB
023Aufteilung_des_Primaerenergieverbrauchs_auf_2006.pdf06.11.2008 14:04:162,25 MB
024Als_Zweirohrsystem_ausgefuehrte_Warmwasserheiz.pdf06.11.2008 14:04:16632,4 KB
025Blockheizkraftwerk_Schaltschema_eines_BHKW.pdf06.11.2008 14:04:17492,2 KB
026Schema_einer_Warmwasser_Zentralheizung_mit_W.pdf06.11.2008 14:04:17971,7 KB
027Elektro_Speicherheizung_Lastkurven_Aufbau.pdf06.11.2008 14:04:17823,9 KB
028Endenergiebedarf_eines_Einfamilienhauses.pdf06.11.2008 14:04:18627,6 KB
029Verhaeltnis_Lueftungswaermeverlust_zu_Transmiss.pdf06.11.2008 14:04:18464,3 KB
030Energiebilanz_eines_Wohnhauses.pdf06.11.2008 14:04:18664,8 KB
031Indirekter_Waermeaustausch_zwischen_zwei_stroem.pdf06.11.2008 14:04:19649,2 KB
032Waermedurchgang_einer_Daemmstoffplatte_in_Abh.pdf06.11.2008 14:04:19566,1 KB
033Haeufigkeitsverteilung_der_Lufttemperatur_Essen51.pdf06.11.2008 14:04:191,06 MB
034Haeufigkeitsverteilung_hd_der_Umgebungstemperat.pdf06.11.2008 14:04:20695,3 KB
035Staat_belohnt_Umstieg_auf_sparsames_Heizen.pdf06.11.2008 14:04:201,30 MB
036Rohrbuendel_und_Plattenwaermeaustauscher.pdf06.11.2008 14:04:21718,7 KB
037Stroemungsrichtungen_und_Temperaturverlauf_Wae.pdf06.11.2008 14:04:21586,8 KB
038Schema_einer_Waermepumpe_Energieflussbild_der.pdf06.11.2008 14:04:221,01 MB
039Schema_einer_Grundwasser_Waermepumpenanlage.pdf06.11.2008 14:04:22957 KB
040Waermequellen_fur_Waermepumpen.pdf06.11.2008 14:04:22792 KB
041Umgebungsluft_Waermepumpe.pdf06.11.2008 14:04:233,08 MB
042Prinzipschaltbild_einer_Kompressions_Waermepump.pdf06.11.2008 14:04:241,29 MB
043Der_Waermepumpenkreisprozess_ im_T_Q_durch_T.pdf06.11.2008 14:04:241,12 MB
044Linkslaeufiger_Carnot_Prozess_im_T_S_Diagramm.pdf06.11.2008 14:04:251,25 MB
045p_h_Diagramm_p_im_logarithmischen_Massstab.pdf06.11.2008 14:04:251,49 MB
046Der_ideale_und_reale_Waermepumpenkreisprozess.pdf06.11.2008 14:04:26524,3 KB
046TTVideo.wmv12.12.2008 11:45:4353,29 MB
047log_p_h_Diagramm_fuer_Forane_134a.pdf06.11.2008 14:04:26485 KB
048log_p_h_Diagramm_fuer_R_134A.pdf06.11.2008 14:04:26401 KB
049Energieflussdiagramm_fuer_elektromotorisch_a_W.pdf06.11.2008 14:04:271,14 MB
050Energieflussdiagramm_fuer_gasmotorisch_a_K_W.pdf06.11.2008 14:04:27496,5 KB
051Primaerenergienutzungsgrad_PEN_fuer_Waermepum.pdf06.11.2008 14:04:27636 KB
052Dampfdruckkurven_verschiedener_Arbeitsmedien_im.pdf06.11.2008 14:04:27652,6 KB
053Vergleich_ausgewaehlter_Eigenschaften_einiger_Arb.pdf06.11.2008 14:04:281,51 MB
054Schema_einer_Kaelteanlage_Schematische_Darstell.pdf06.11.2008 14:04:281,64 MB
055Schaltbild_einer_Kaltdampf_Kaeltemaschine_Kreispr.pdf06.11.2008 14:04:291,38 MB
056Kompressions_Kuehlschrank.pdf06.11.2008 14:04:29816,9 KB
057logp_h_Diagramm_fuer_R717_Ammoniak_NH3.pdf06.11.2008 14:04:304,39 MB
058logp_h_Diagramm_fuer_Ammoniak_mit_Werten_tC.pdf06.11.2008 14:04:311,41 MB
059Gasturbinenanlage_mit_Abhitzekessel_und_nachge.pdf06.11.2008 14:04:32417,5 KB
060Funktionsschema_eines_Gas_und_Dampfturbinenk.pdf06.11.2008 14:04:32496,4 KB
061Wirkungsgrade_verschiedener Kraftwerksprozesse.pdf06.11.2008 14:04:33461,9 KB
062Zusaetzliche_Kohlevergasung.pdf06.11.2008 14:04:33437,5 KB
063GUD_Anlage_Ludwigshafen.pdf06.11.2008 14:04:33875,8 KB
064Aufbau_GuD_Anlage_Ludwigshafen.pdf06.11.2008 14:04:341,35 MB
065Technische_Daten_Kombikraftwerk_bei_einer_Auss.pdf06.11.2008 14:04:34554,3 KB
066Erneuerbare_Energiequellen.pdf06.11.2008 14:04:341,46 MB
067Groessen_und_Entfernungen_im_Sonnensystem.pdf06.11.2008 14:04:351,98 MB
068Herkunft_und_Staerke_der_Solarstrahlung.pdf06.11.2008 14:04:36651,9 KB
069Regenerative_Energien_Ursprung_Technisch_nutzba.pdf06.11.2008 14:04:361,28 MB
070Direktstrahlung_der_Sonne_auf_die_Erde.pdf06.11.2008 14:04:37393,8 KB
071Sonneneinstrahlung_und_Mittelw_taegl_Einstrahlung.pdf06.11.2008 14:04:37922,9 KB
072Leistungsdichte_Erneuerbare_Energien_und_Konv_E.pdf06.11.2008 14:04:371,69 MB
073Was_kostet_der_Strom.pdf06.11.2008 14:04:38446,3 KB
074Bestandteile_Strompreis_in_Deutschland_2005.pdf06.11.2008 14:04:38735,2 KB
075Wo_kommt_der_Strom_her.pdf06.11.2008 14:04:38391 KB
076Querschnitt_durch_einen_Kollektor_der_die_Strahlung.pdf06.11.2008 14:04:39563,2 KB
077Die_selektive_Absorberabd_fuer_den_kuzwelligen_Str.pdf06.11.2008 14:04:39566,5 KB
078Leistungskennlinien_eines_Flachkoll_Einfachabd.pdf06.11.2008 14:04:391,03 MB
079Vakuumroehrenkollektor.pdf06.11.2008 14:04:40775,4 KB
080Vakuumisolierter_Roehrenkollektor.pdf06.11.2008 14:04:40155,2 KB
081Zweikreisige_Thermosiphon_Anlage.pdf06.11.2008 14:04:401,31 MB
082Entwicklung_des_Solarkollektormarktes_Deutschland.pdf06.11.2008 14:04:411,47 MB
083Wirtschaftlichkeit_solare_Brauchwassererwaermung.pdf06.11.2008 14:04:42278,3 KB
084Funktionsweise_einer_Siliziumsolarzelle.pdf06.11.2008 14:04:42769,9 KB
085Der_Stoff_aus_dem_Solarzellen_sind.pdf06.11.2008 14:04:431,84 MB
086Solarzellen_Kristalle.pdf06.11.2008 14:04:441,99 MB
087Die_Diffusion_fuehrt_zu_Diffusionsstroemen.pdf06.11.2008 14:04:44455,1 KB
088Das_innere_elektr_Feld_einer_p_n_Zelle_trennt_die_Lad.pdf06.11.2008 14:04:45361 KB
089Kennlinien_einer_Siliziumsolarzelle.pdf06.11.2008 14:04:45488,2 KB
090Energieflussbild_einer_Siliziumsolarzelle.pdf06.11.2008 14:04:45671,3 KB
091Spannungs_Strom_Kennlinie_Solarzelle_und_Ersatzschaltb.pdf06.11.2008 14:04:451,76 MB
092Entwicklung_der_Photovoltaik_Kosten.pdf06.11.2008 14:04:461,29 MB
093Wirtschaftlichkeit_der_Photovoltaik.pdf06.11.2008 14:04:47294,8 KB
094KfW_100000_Daecher_Programm.pdf06.11.2008 14:04:47366,7 KB
095Gebiete_mit_technischnutzbaren_Windgeschw_De.pdf06.11.2008 14:04:47785,1 KB
096Entwicklung_marktfaehiger_Windkraftanlagen.pdf06.11.2008 14:04:483,12 MB
097Entwicklung_der_installierten_Windkraftleistung_Deu.pdf06.11.2008 14:04:491,24 MB
098Tatsaechliche_Windkraftleistung_zum_Zeitpukt_der_monat.pdf06.11.2008 14:04:50662,5 KB
099Entwicklung_d_Stromeinspeisung_erneu_Energ88_2006.pdf06.11.2008 14:04:50504,7 KB
100Animation_Fuel_Cell_H2_O2_Funktionsweise.swf06.11.2008 14:04:5041,5 KB
101Die_Membran_Brennstoffzelle_PEMFC.swf06.11.2008 14:04:511,36 MB
B001Heizkessel_fuer_Warmwasserbereitung.avi06.11.2008 14:04:56143,5 KB
B002Beispiel_Offene_Gasturbinenanlage_mit_Abwaermnenutzung.avi06.11.2008 14:04:561,07 MB
B002Beispiel_Offene_Gasturbinenanlage_mit_Abwaermnenutzung.wmv06.11.2008 14:04:572,5 KB
B003Ts_und_hs_Diagramm_fuer_Dampfturbinenbereich.avi06.11.2008 14:04:586,10 MB
B004Jahresganglinien_fuer_Strom_P_und_Waermeleistung_Q.avi06.11.2008 14:05:001,28 MB
B005Schaltschema_Warmwasserheizung_mit_Gas.avi06.11.2008 14:05:01469,5 KB
B006Wand_mit_gekruemmten_Temperaturverlauf.avi06.11.2008 14:05:01721,5 KB
B007Q_gleich_f_von_t2.avi06.11.2008 14:05:01463,5 KB
B008Temperaturverlauf_von_t1_bis_zu_t2.avi06.11.2008 14:05:02106,5 KB
B009Temperaturverlauf_t_gleich_f_von_A.avi06.11.2008 14:05:02142,5 KB
B010Schaltschema_Heizkoerper_Ventilator_Wasserkreislauf.avi06.11.2008 14:05:02250 KB
B011Rechtslauufiger_einfacher_Dampfkraftprozess.avi06.11.2008 14:05:02324 KB
B012Carnot_Leistungszahl.avi06.11.2008 14:05:03341 KB
B013log_ph_Diagramm.avi06.11.2008 14:05:03182,5 KB
B014Prinzipschaltbild_verbrennungsmotorisch_Waermepumpe.avi06.11.2008 14:05:03195,5 KB
B015Diagramm_E_Flaeche_aus_P_mal_Tau.avi06.11.2008 14:05:03462 KB
B016Diagramm_E_Integralflaeche_P_mal_Tau.avi06.11.2008 14:05:04418 KB
B017Aufbau_eines_Flachkollektors.pdf06.11.2008 14:05:0428,2 KB
Vorlesung für Lehramt HRGe (SI) und GyGe (SII) Hauptstudium, Fach Technik, SS 2008, Prof. Dr.-Ing. E. Sauer, Universität Duisburg-Essen, Fakultät für Ingenieurwissenschaften, Campus Essen, Abt. Technik (Lehramt), Fach Technologie und Didaktik der Technik (TUD) Inhaltsverzeichnis: 1. Einführung 2. Grundlagen der Energieversorgungsstruktur 3. Hausheizung und Wärmebedarfsrechnung 4. Wärmepumpe 5. Kältemaschine 6. GuD Kraftwerk 7. Regenerative Energien Literaturverzeichnis
Keine URN zugeordnet
Lesezeichen:
Permalink | Teilen/Speichern
Dokumententyp:
Lehrmaterial » Vorlesungsskript, Vorlesungsfolien
Fakultät / Institut:
Fakultät für Ingenieurwissenschaften » Bauwissenschaften » Lehramt Technik » Technoligie und Didaktik der Technik
Stichwörter:
Sauer, Systeme der Energieversorgung, Vorlesung, Skript, Folien
Beitragender:
Hasche, Hauke [Beitragende(r)]
Sprache:
Deutsch
Kollektion / Status:
Lehr- und Lernmaterial / Dokument veröffentlicht
Dateien geändert am:
12.12.2008
Medientyp:
Text; Bild; Animation / Simulation